Weather History for Massena, NY

Change the Weather History Date:

Monday, November 7, 2011

  Actual Average Record
Temperature  
Mean Temperature 46 °F 39 °F  
Max Temperature 62 °F 47 °F 73 °F (1975)
Min Temperature 29 °F 30 °F 13 °F (1962)
Degree Days  
Heating Degree Days 19 26  
Month to date heating degree days 164 177  
Since 1 July heating degree days 769 1058  
Cooling Degree Days 0 0  
Month to date cooling degree days 0  
Year to date cooling degree days 363  
Moisture  
Dew Point 36 °F    
Average Humidity 64    
Maximum Humidity 85    
Minimum Humidity 43    
Precipitation  
Precipitation 0.00 in 0.10 in 0.88 in (1951)
Month to date precipitation 0.04 0.77  
Year to date precipitation 27.41 30.27  
Sea Level Pressure  
Sea Level Pressure 30.17 in    
Wind  
Wind Speed 12 mph (SW)    
Max Wind Speed 23 mph    
Max Gust Speed 29 mph    
Visibility 10 miles    
Events      
T = Trace of Precipitation, MM = Missing Value Source: NWS Daily Summary

Daily Weather History Graph

Daily Weather History Graph

Search for Another Location

Airport:

Trip Planner

Search our weather history database for the weather conditions in past years. The results will help you decide how hot, cold, wet, or windy it might be!

Date:

Astronomy

Nov. 07, 2011 Rise Set
Actual Time 6:45 AM EST 4:39 PM EST
Civil Twilight 6:14 AM EST 5:10 PM EST
Nautical Twilight 5:39 AM EST 5:45 PM EST
Astronomical Twilight 5:05 AM EST 6:20 PM EST
Moon 2:54 PM EST (11/7) 3:40 AM EST (11/7)
Length of Visible Light 10h 56m
Length of Day
9h 54m
Waxing Gibbous, 91% of the Moon is Illuminated
Nov 7
Waxing Gibbous
Nov 10
Full
Nov 18
Last Quarter
Nov 25
New
Dec 2
First Quarter

Hourly Weather History & Observations

Time (EST) Temp. Windchill Dew Point Humidity Pressure Visibility Wind Dir Wind Speed Gust Speed Precip Events Conditions
12:53 AM 28.9 °F - 23.0 °F 78% 30.23 in 10.0 mi Calm Calm - N/A   Clear
1:53 AM 30.9 °F 26.2 °F 26.1 °F 82% 30.23 in 10.0 mi SSW 4.6 mph - N/A   Clear
2:53 AM 37.0 °F 32.4 °F 27.0 °F 67% 30.21 in 10.0 mi South 5.8 mph - N/A   Clear
3:53 AM 42.1 °F 38.4 °F 27.0 °F 55% 30.20 in 10.0 mi SSW 5.8 mph - N/A   Clear
4:53 AM 42.1 °F 36.6 °F 28.0 °F 58% 30.20 in 10.0 mi SSW 9.2 mph - N/A   Clear
5:53 AM 45.0 °F 40.6 °F 28.9 °F 53% 30.20 in 10.0 mi SSW 8.1 mph - N/A   Clear
6:53 AM 48.0 °F - 28.9 °F 48% 30.20 in 10.0 mi SSW 11.5 mph - N/A   Clear
7:53 AM 51.8 °F - 30.2 °F 44% 30.19 in 10.0 mi SW 12.7 mph - N/A   Partly Cloudy
8:53 AM 54.0 °F - 32.0 °F 43% 30.20 in 10.0 mi SW 9.2 mph 18.4 mph N/A   Overcast
9:53 AM 53.6 °F - 33.8 °F 47% 30.19 in 10.0 mi SW 13.8 mph 23.0 mph N/A   Overcast
10:53 AM 57.0 °F - 36.0 °F 45% 30.19 in 10.0 mi SW 12.7 mph - N/A   Mostly Cloudy
11:53 AM 57.0 °F - 37.0 °F 47% 30.17 in 10.0 mi SW 16.1 mph - N/A   Overcast
12:53 PM 61.0 °F - 39.9 °F 46% 30.14 in 10.0 mi SW 20.7 mph 25.3 mph N/A   Clear
1:53 PM 62.1 °F - 41.0 °F 46% 30.12 in 10.0 mi SSW 20.7 mph 25.3 mph N/A   Clear
2:53 PM 62.1 °F - 42.1 °F 48% 30.11 in 10.0 mi SW 16.1 mph - N/A   Clear
3:53 PM 60.8 °F - 42.8 °F 52% 30.10 in 10.0 mi SW 11.5 mph 21.9 mph N/A   Clear
4:53 PM 57.0 °F - 42.1 °F 57% 30.13 in 10.0 mi SW 11.5 mph - N/A   Clear
5:53 PM 55.4 °F - 42.8 °F 63% 30.13 in 10.0 mi SW 11.5 mph 23.0 mph N/A   Clear
6:53 PM 55.9 °F - 43.0 °F 62% 30.14 in 10.0 mi SW 13.8 mph 21.9 mph N/A   Clear
7:53 PM 55.9 °F - 42.1 °F 60% 30.14 in 10.0 mi SW 17.3 mph 24.2 mph N/A   Clear
8:53 PM 55.4 °F - 42.8 °F 63% 30.16 in 10.0 mi SW 12.7 mph 20.7 mph N/A   Clear
9:53 PM 54.0 °F - 44.1 °F 69% 30.19 in 10.0 mi SW 13.8 mph 20.7 mph N/A   Mostly Cloudy
10:53 PM 52.0 °F - 44.1 °F 74% 30.20 in 10.0 mi SW 9.2 mph - N/A   Partly Cloudy
11:53 PM 51.1 °F - 45.0 °F 80% 30.22 in 10.0 mi SW 8.1 mph - N/A   Mostly Cloudy